Вернуться в каталог

SL-12 DEB

АктивенHEO
NORAD 44982·DEBRIS·🇷🇺 Russia

Запущен Dec 25, 2006 с Baikonur Cosmodrome

Loading…

Ближайшие Пролёты (ближайшие 24 часа)

TLE

СвежийSource: Space-Track

Эпоха: Sep 9, 2026, 03:54 UTC

1 44982U 06062S   26252.16283448  .00000501  00000-0  52971-2 0  9996
2 44982  65.0144 332.7721 5569836 265.4610  32.4830  4.28267443107154

Отслеживайте SL-12 DEB в реальном времени с AllMySat

Download on the App Store